Temperature
17 17 17 17 17 17 17 17 16 16 16 17 17 17 17 17 17 17 17 17 17 16 17 16 16 16 16 16 16 16 16 16 16 16 16 16 16 16 16 16 16 16 15
17 17 17 17 17 17 17 17 17 16 17 17 17 17 17 17 16 16 16 17 17 17 16 16 16 16 16 16 16 16 16 16 16 16 16 16 16 16 16 16 16 16 15
17 17 17 17 17 17 16 16 16 16 17 17 17 17 17 17 17 16 16 16 16 17 17 16 16 16 16 16 16 16 16 16 16 16 16 16 16 16 16 16 16 16 15
17 17 17 17 17 17 16 16 17 17 17 17 17 17 17 16 16 16 16 16 16 16 16 16 16 16 16 16 16 16 16 16 16 16 16 16 16 16 16 16 16 16 15
17 17 17 17 17 17 16 17 17 17 17 17 17 17 17 17 16 16 16 16 16 16 16 16 16 16 16 16 16 16 16 16 16 16 16 16 16 16 16 16 16 16 16
17 17 17 16 17 17 16 16 16 16 17 17 17 17 17 17 17 17 16 16 16 16 16 16 16 16 16 16 16 16 16 16 16 16 16 16 16 16 16 16 16 15 15
17 17 17 16 16 17 16 16 16 16 17 16 17 17 17 17 17 17 17 17 17 16 16 16 16 16 16 16 16 16 16 16 16 16 16 16 16 16 15 15 15 15 15
17 17 17 17 17 16 16 16 16 17 17 17 17 18 18 18 17 17 17 17 17 17 16 16 16 16 16 16 16 16 16 16 16 16 16 15 15 15 15 15 15 15 15
17 16 16 17 16 16 16 16 16 16 17 17 17 17 18 19 18 18 17 17 16 17 17 16 16 16 16 16 16 16 16 16 16 15 15 15 15 15 15 15 15 15 15
17 17 16 16 16 16 16 16 16 16 16 17 17 17 17 17 18 18 18 17 17 17 17 17 17 16 16 16 16 16 16 16 16 15 15 15 15 15 15 15 15 15 15
17 16 16 16 16 16 16 16 16 16 16 17 17 17 17 17 17 18 18 18 18 17 17 17 17 17 16 16 16 16 16 16 16 15 15 15 15 15 15 15 15 15 15
17 16 16 16 16 16 16 16 16 16 16 16 17 17 17 17 18 18 18 18 18 18 17 17 17 17 16 16 16 16 16 16 16 16 15 15 15 15 15 15 15 15 15
17 16 16 16 16 16 16 16 16 16 16 16 16 16 17 17 17 18 18 18 18 18 17 17 17 17 17 16 16 16 16 16 16 16 16 15 15 15 15 15 15 15 15
17 16 16 16 16 16 16 16 16 16 16 16 16 16 16 17 17 17 17 18 18 18 18 17 17 17 17 16 16 16 16 16 16 16 16 16 16 15 15 15 15 15 15
17 16 16 16 16 16 16 16 16 15 16 16 16 16 16 16 16 16 17 17 17 18 18 18 17 17 16 16 16 16 16 16 16 16 16 16 16 16 15 15 15 15 15
16 16 16 16 16 16 16 16 15 15 15 15 16 15 16 16 16 16 16 16 16 17 17 18 17 17 16 16 16 16 16 16 16 16 16 16 16 16 15 15 15 15 15
16 16 16 16 16 16 16 16 15 15 15 15 15 15 15 15 15 16 16 16 16 16 16 17 16 16 15 15 15 15 15 15 15 16 15 16 15 15 15 15 15 15 15
16 16 16 16 16 16 16 16 15 15 15 15 15 15 15 15 15 15 15 15 15 15 15 15 16 15 15 15 15 15 15 15 15 15 15 15 15 15 15 15 15 15 14
16 16 16 16 16 16 16 15 15 15 15 15 15 15 15 15 15 15 15 15 15 15 15 15 15 15 14 14 14 14 14 14 14 14 14 14 14 14 14 14 14 14 14
16 16 16 16 16 16 15 15 15 15 15 15 14 14 14 14 14 14 14 14 14 14 14 14 14 14 14 13 13 13 13 13 13 13 13 13 13 13 13 13 13 13 13
16 16 16 15 15 15 15 15 15 14 14 14 14 14 14 14 14 14 14 14 14 14 14 13 13 13 13 12 12 12 12 12 12 12 12 12 12 12 12 12 12 12 12
15 15 15 15 15 15 15 15 14 14 14 14 14 13 13 13 13 13 13 13 13 13 13 12 12 12 11 11 11 11 11 11 11 11 11 11 11 11 11 11 11 11 11
15 15 15 14 14 14 14 14 14 14 13 13 13 12 12 12 12 12 12 12 12 12 12 11 11 10 10 10 10 10 10 10 10 10 10 10 10 10 10 10 10 10 10
14 14 14 14 14 13 13 13 13 13 13 12 12 12 11 11 11 11 11 11 11 11 11 10 10 10 9 9 9 9 9 9 9 9 9 9 9 9 9 9 9 8 8
14 13 13 13 13 13 12 12 12 12 12 11 11 11 10 10 10 10 10 10 9 9 9 9 9 9 8 8 8 8 8 9 9 9 8 8 8 8 8 8 8 8 7
13 13 12 12 12 12 11 11 11 11 11 10 10 9 9 9 9 9 9 8 8 8 8 7 7 7 7 7 7 7 7 7 8 8 7 7 7 7 7 8 7 7 7
Wind_Speed
5 6 5 4 5 6 7 5 5 5 4 5 4 4 4 4 3 5 9 10 8 8 8 8 8 8 8 8 8 8 8 8 8 8 7 7 7 7 7 7 7 6 6
6 5 5 5 4 5 4 4 5 5 4 4 3 4 4 5 5 3 7 10 9 8 8 8 8 8 8 8 8 8 8 8 8 9 8 8 7 7 7 7 7 7 6
6 5 5 5 4 5 5 5 5 4 4 4 4 4 3 3 5 4 4 6 9 10 9 8 8 8 8 8 8 9 9 8 9 9 9 9 8 8 8 8 8 8 7
7 5 4 5 5 5 5 4 5 4 4 4 4 3 4 4 4 5 5 5 5 7 10 10 9 9 9 9 9 9 9 9 10 10 10 10 10 10 9 9 9 9 9
8 6 4 4 6 5 5 5 5 4 4 3 4 4 3 4 4 5 4 5 5 5 7 11 11 10 10 10 10 10 10 11 11 11 12 12 12 12 11 11 11 11 10
8 7 5 5 6 5 5 4 4 3 3 3 3 3 3 3 4 4 5 5 6 7 7 7 9 11 12 11 10 10 10 11 12 12 12 13 13 13 13 13 13 12 12
8 7 5 6 5 5 5 6 5 6 5 3 3 3 4 4 4 4 4 4 5 6 6 7 7 6 9 13 12 10 10 10 11 12 13 13 13 14 14 15 15 15 15
9 8 6 6 6 4 6 6 5 4 4 4 4 3 3 4 5 5 4 5 5 6 7 8 7 6 7 7 10 12 11 11 12 12 12 13 13 14 14 15 15 15 16
10 8 8 7 6 7 6 7 6 7 5 5 4 3 3 2 3 4 5 5 4 5 5 5 8 8 8 7 7 13 12 11 11 11 12 13 13 14 14 15 15 16 16
10 10 8 7 7 6 6 7 6 5 6 5 4 3 3 3 3 2 5 5 5 5 5 5 6 7 8 8 7 5 10 11 11 11 11 12 13 14 14 15 15 16 16
9 9 9 8 7 6 6 5 5 6 6 6 5 4 4 4 5 4 2 3 5 5 5 5 5 5 6 7 7 7 9 10 11 11 11 11 12 13 14 14 14 14 15
8 9 9 8 8 7 7 7 6 7 5 5 5 5 5 4 5 4 3 4 3 3 4 4 5 5 6 7 7 6 8 10 11 11 11 11 11 12 12 13 13 13 14
8 9 9 8 8 7 7 7 7 6 7 6 6 6 5 5 4 4 4 3 3 3 3 5 4 4 5 5 5 6 8 9 10 11 11 12 12 12 12 12 12 13 13
8 9 10 9 8 9 8 7 7 7 6 6 7 5 5 5 4 5 5 4 5 4 5 4 3 3 3 4 2 5 7 9 9 10 11 11 12 12 12 12 12 12 12
8 10 10 10 9 9 8 8 7 7 6 7 7 7 6 5 4 5 5 5 6 6 4 4 4 2 2 3 1 5 5 5 7 8 9 9 10 10 11 11 11 12 12
8 9 10 10 9 9 9 9 8 7 7 6 5 4 5 5 4 4 5 4 5 6 6 3 2 1 1 3 2 4 5 4 5 6 6 7 8 9 9 10 10 11 11
8 9 9 9 9 9 9 9 8 7 8 7 6 6 6 5 4 4 5 5 5 6 6 6 3 1 1 4 2 3 4 4 3 5 4 4 5 7 7 8 9 9 10
8 8 8 9 9 9 9 9 8 8 7 7 6 6 6 5 4 5 4 5 5 4 6 7 4 3 2 2 3 4 3 4 2 6 5 2 2 3 4 5 5 6 7
7 7 8 8 8 7 7 7 7 6 6 5 5 5 4 3 3 3 4 4 4 4 4 5 5 2 2 2 3 3 3 3 4 3 5 4 2 1 1 1 2 3 4
6 6 6 7 6 6 6 6 5 5 4 3 2 2 1 1 1 2 3 3 4 4 3 4 4 2 2 2 3 4 4 3 4 5 4 2 2 2 2 2 2 2 4
6 6 6 5 5 5 5 6 5 5 5 4 3 3 4 7 9 5 3 2 2 2 2 2 2 2 2 3 3 4 4 4 3 3 4 4 3 3 2 2 3 6 6
5 6 5 5 5 4 7 7 6 6 6 5 5 5 6 8 10 12 13 13 10 4 2 2 2 3 4 5 5 5 5 5 4 4 5 5 4 4 4 3 6 6 7
7 7 7 7 6 7 10 11 9 7 7 6 6 6 6 6 7 7 10 11 13 13 10 5 5 5 4 5 6 5 5 6 5 5 6 6 4 5 5 3 3 3 5
8 8 8 8 8 8 11 12 12 10 9 8 8 7 7 7 7 6 8 9 10 10 10 8 7 7 7 7 6 5 5 4 4 2 4 6 6 6 7 7 3 1 4
9 9 8 9 9 8 10 10 10 9 9 10 9 9 8 8 9 6 8 8 8 8 13 14 12 9 10 10 10 6 6 6 5 4 4 6 7 8 8 7 3 4 6
10 10 10 9 9 9 9 9 8 8 10 10 9 10 14 12 11 9 7 7 7 6 5 5 5 4 5 6 6 7 7 7 7 6 5 7 8 9 8 6 7 9 9
Wind_Direction
165 153 148 155 165 153 161 166 161 155 166 173 171 155 156 138 136 135 132 153 167 170 170 174 175 175 175 174 174 174 172 169 167 165 164 164 163 165 166 163 163 161 162
162 164 161 165 164 169 157 167 159 168 182 168 171 156 166 154 146 159 144 155 171 180 182 182 184 186 187 189 189 189 189 187 182 182 181 180 180 181 182 183 182 180 181
166 175 166 175 168 162 159 180 168 179 183 174 171 170 168 172 157 169 163 163 169 180 191 194 197 197 198 198 201 203 202 199 195 194 195 194 195 196 196 197 198 196 195
175 185 177 175 167 176 179 176 194 185 183 183 174 190 169 166 173 180 181 182 177 174 183 193 203 204 206 207 208 210 209 209 206 205 206 206 207 207 207 208 208 207 207
186 193 187 164 185 185 187 198 175 202 187 185 182 179 189 186 181 188 185 189 183 189 185 176 196 206 211 216 218 218 215 214 215 215 216 216 216 216 216 216 216 217 218
192 197 189 182 200 194 191 201 172 206 208 198 217 166 194 190 204 191 203 189 190 199 201 191 195 201 208 218 222 223 219 218 218 220 222 222 223 222 222 222 223 224 226
192 200 198 180 208 200 203 198 197 187 202 198 207 198 197 204 206 202 215 209 199 204 199 201 218 214 198 204 214 220 221 221 221 221 224 226 227 227 227 227 228 229 230
197 195 201 200 199 196 203 209 212 215 196 196 223 212 206 194 208 204 202 211 214 205 208 207 209 215 237 208 192 206 220 226 227 228 228 228 230 231 231 232 234 235 235
201 204 199 210 199 208 198 206 206 217 211 196 224 246 254 226 191 182 202 206 212 218 221 213 218 211 221 230 207 198 208 222 230 233 231 230 231 233 234 234 235 237 238
198 199 200 203 208 212 194 206 205 219 226 214 198 240 280 327 276 189 191 192 199 216 229 230 219 210 220 228 221 216 204 220 229 234 235 234 233 235 237 237 238 240 240
196 199 199 201 204 211 201 207 193 221 220 228 219 216 219 223 250 266 219 201 200 205 205 221 230 225 218 228 227 215 203 223 231 235 238 238 237 237 239 240 242 244 245
195 198 198 198 201 203 197 202 203 207 227 234 242 232 224 223 231 239 239 227 219 207 210 223 229 224 223 227 222 175 203 224 233 238 241 242 242 241 240 240 242 245 247
195 194 196 196 201 202 203 204 207 217 212 215 228 235 238 243 254 261 267 264 258 229 213 228 227 234 236 235 221 188 214 224 232 235 238 240 242 242 242 243 244 246 248
201 189 194 198 200 202 204 202 210 208 209 216 224 235 240 238 245 255 265 272 266 248 224 230 224 226 243 244 205 217 228 213 227 234 237 238 239 241 243 246 249 251 253
200 191 196 198 200 201 203 202 214 210 205 216 215 211 229 223 231 247 256 266 275 275 255 211 226 198 246 254 231 246 246 204 217 231 238 241 242 244 246 249 252 254 255
204 195 197 200 202 200 200 207 208 205 207 212 226 223 231 236 233 242 252 258 269 276 279 275 249 272 332 289 191 253 251 186 208 221 234 241 243 244 248 250 253 255 257
201 200 199 200 202 202 201 205 214 199 206 206 212 212 222 249 248 248 247 251 255 259 265 268 256 247 271 293 311 281 262 249 213 181 207 239 248 250 253 255 257 260 263
199 199 199 201 203 202 201 202 206 200 204 208 211 214 222 222 231 259 262 258 258 268 270 277 279 276 261 284 294 286 285 273 283 136 149 179 232 251 258 261 267 273 276
195 196 195 198 198 194 193 194 194 191 195 202 205 208 217 222 232 249 257 263 262 256 265 274 276 297 287 326 311 294 294 321 299 160 159 170 173 201 253 275 295 304 308
184 185 184 183 179 176 174 172 170 173 176 181 184 183 194 215 253 269 261 272 276 277 271 270 278 288 300 330 321 318 314 327 318 326 354 356 130 158 149 116 62 21 357
166 162 161 161 160 162 163 158 158 158 151 140 121 103 84 71 55 39 12 343 306 288 288 284 294 305 345 350 344 327 319 317 318 339 328 325 327 320 318 148 85 47 28
145 140 143 141 140 137 109 112 133 136 130 126 118 109 99 87 82 73 65 55 40 29 14 6 23 34 25 8 353 337 330 319 315 1 330 318 328 323 326 342 59 44 17
126 121 118 117 112 99 97 101 102 113 111 109 106 101 95 88 90 93 85 79 63 53 45 44 59 42 28 12 349 344 352 338 332 333 325 312 318 316 316 340 68 22 356
108 102 99 101 100 96 99 102 103 105 99 93 91 93 94 83 71 79 86 76 66 53 49 54 58 44 34 10 348 333 324 305 283 319 345 314 323 321 319 309 186 191 318
104 99 98 98 99 95 92 102 109 110 101 91 81 77 88 89 60 60 86 85 81 79 77 76 72 69 57 38 11 348 343 325 322 330 3 326 320 318 307 296 261 224 276
102 97 90 88 92 91 84 92 106 111 106 99 90 80 70 73 61 52 82 85 81 70 64 74 78 75 51 48 30 10 351 335 327 325 12 337 322 326 313 306 318 310 300
Height
1563 1564 1566 1567 1570 1571 1572 1573 1575 1576 1578 1579 1581 1581 1582 1583 1584 1585 1584 1584 1585 1586 1587 1588 1589 1590 1591 1592 1593 1593 1594 1595 1595 1596 1597 1597 1598 1598 1599 1599 1600 1600 1601
1563 1564 1566 1567 1570 1571 1573 1574 1575 1576 1578 1579 1580 1581 1582 1583 1583 1584 1585 1585 1585 1586 1587 1588 1589 1590 1591 1592 1593 1593 1594 1595 1595 1596 1597 1597 1598 1598 1599 1599 1600 1600 1601
1562 1564 1566 1567 1569 1570 1571 1573 1574 1576 1578 1579 1580 1581 1582 1583 1584 1584 1585 1586 1586 1586 1586 1587 1588 1589 1590 1591 1592 1593 1594 1594 1595 1596 1596 1597 1597 1598 1598 1599 1599 1600 1600
1561 1563 1565 1568 1568 1571 1572 1573 1575 1577 1578 1579 1580 1581 1581 1582 1583 1584 1585 1585 1586 1587 1586 1587 1588 1588 1589 1590 1591 1592 1593 1593 1594 1595 1596 1596 1597 1597 1598 1598 1599 1599 1600
1561 1563 1565 1567 1568 1570 1572 1573 1575 1576 1577 1578 1579 1580 1581 1582 1582 1583 1584 1584 1585 1586 1586 1586 1586 1587 1588 1589 1590 1591 1591 1592 1593 1594 1594 1595 1595 1596 1596 1597 1597 1598 1599
1560 1562 1564 1565 1568 1570 1571 1572 1573 1574 1576 1577 1579 1580 1580 1581 1582 1582 1583 1584 1584 1585 1586 1586 1586 1586 1587 1587 1588 1589 1590 1590 1591 1592 1593 1593 1594 1594 1595 1595 1596 1596 1597
1559 1560 1564 1565 1567 1569 1570 1572 1573 1574 1575 1577 1578 1579 1580 1580 1581 1581 1582 1583 1583 1584 1584 1585 1585 1586 1586 1586 1586 1587 1588 1588 1589 1590 1590 1591 1591 1592 1592 1593 1594 1594 1595
1557 1560 1561 1564 1566 1567 1568 1570 1571 1574 1575 1576 1577 1578 1579 1580 1579 1580 1580 1581 1582 1582 1583 1584 1584 1584 1585 1586 1585 1586 1586 1587 1587 1588 1588 1589 1589 1590 1590 1590 1591 1591 1592
1555 1558 1560 1562 1564 1566 1567 1568 1570 1572 1574 1575 1576 1577 1577 1577 1578 1579 1579 1580 1580 1581 1582 1582 1582 1583 1583 1584 1584 1584 1584 1584 1585 1585 1586 1586 1587 1587 1587 1588 1588 1588 1589
1553 1556 1558 1560 1562 1564 1565 1567 1569 1571 1572 1574 1575 1575 1577 1576 1577 1577 1578 1578 1579 1579 1580 1581 1581 1581 1581 1582 1582 1582 1582 1582 1582 1583 1583 1583 1584 1584 1584 1585 1585 1585 1586
1551 1554 1556 1558 1559 1562 1564 1565 1567 1568 1571 1572 1573 1575 1575 1576 1577 1577 1577 1577 1578 1578 1578 1579 1579 1580 1580 1580 1580 1580 1580 1580 1580 1580 1580 1581 1581 1581 1581 1582 1582 1582 1582
1549 1551 1553 1555 1557 1560 1561 1563 1564 1566 1568 1570 1571 1573 1574 1575 1575 1576 1576 1576 1576 1577 1577 1577 1577 1578 1578 1578 1578 1578 1577 1577 1578 1578 1578 1578 1578 1578 1578 1578 1579 1578 1579
1547 1549 1551 1553 1555 1557 1559 1561 1562 1565 1566 1567 1569 1571 1572 1573 1574 1574 1575 1574 1574 1575 1575 1575 1575 1575 1576 1576 1575 1575 1575 1575 1575 1575 1575 1575 1575 1575 1575 1575 1575 1575 1575
1545 1547 1549 1551 1553 1554 1557 1558 1561 1562 1563 1565 1567 1568 1569 1571 1572 1572 1573 1573 1573 1573 1573 1573 1573 1573 1573 1573 1572 1572 1572 1572 1572 1572 1572 1572 1572 1572 1572 1572 1572 1572 1572
1543 1544 1546 1548 1550 1552 1554 1556 1559 1560 1561 1563 1565 1566 1567 1568 1569 1570 1571 1571 1572 1571 1570 1570 1571 1570 1570 1570 1569 1569 1569 1568 1568 1568 1568 1568 1568 1568 1568 1568 1568 1568 1567
1539 1541 1544 1546 1548 1550 1552 1554 1556 1558 1559 1560 1562 1563 1564 1566 1567 1568 1568 1568 1569 1569 1568 1568 1568 1568 1567 1567 1566 1566 1566 1565 1564 1564 1564 1564 1564 1564 1564 1564 1564 1563 1563
1536 1539 1541 1543 1545 1547 1549 1551 1554 1555 1557 1558 1560 1561 1562 1563 1564 1565 1565 1566 1566 1566 1566 1566 1565 1565 1563 1563 1563 1563 1563 1562 1561 1560 1560 1560 1560 1559 1559 1559 1559 1558 1558
1533 1536 1538 1540 1542 1544 1546 1548 1551 1552 1554 1556 1557 1558 1559 1560 1561 1561 1562 1562 1563 1563 1563 1562 1562 1562 1561 1560 1559 1559 1559 1559 1558 1556 1556 1555 1555 1554 1554 1554 1553 1553 1552
1530 1533 1535 1537 1540 1542 1544 1546 1548 1549 1551 1553 1554 1555 1556 1557 1558 1559 1559 1559 1560 1560 1559 1559 1559 1558 1558 1557 1556 1556 1556 1555 1555 1554 1552 1551 1550 1549 1549 1548 1548 1547 1546
1528 1530 1532 1534 1537 1539 1541 1543 1544 1546 1548 1550 1551 1552 1553 1554 1555 1555 1556 1556 1556 1556 1556 1556 1556 1556 1555 1554 1553 1553 1552 1551 1551 1550 1548 1547 1546 1544 1543 1543 1542 1541 1540
1525 1527 1530 1532 1534 1536 1538 1539 1541 1543 1545 1547 1549 1550 1550 1551 1552 1553 1553 1553 1553 1553 1553 1553 1553 1553 1552 1551 1550 1549 1549 1548 1546 1545 1544 1543 1542 1541 1540 1538 1536 1535 1534
1523 1525 1527 1529 1531 1533 1535 1537 1539 1541 1542 1544 1546 1547 1548 1549 1549 1550 1550 1550 1551 1550 1550 1551 1550 1550 1549 1548 1546 1546 1546 1545 1544 1542 1541 1540 1538 1537 1536 1534 1531 1530 1528
1521 1523 1525 1527 1529 1531 1533 1535 1537 1539 1540 1542 1543 1545 1546 1547 1548 1548 1548 1548 1548 1548 1548 1548 1548 1547 1546 1545 1544 1544 1543 1542 1540 1539 1538 1537 1535 1534 1532 1530 1527 1525 1523
1520 1522 1524 1526 1527 1529 1531 1534 1536 1537 1539 1540 1541 1542 1544 1545 1546 1546 1547 1547 1547 1546 1546 1546 1546 1545 1544 1543 1542 1542 1540 1539 1538 1536 1535 1534 1532 1530 1528 1526 1522 1520 1518
1519 1521 1523 1525 1527 1529 1531 1533 1535 1536 1537 1538 1540 1541 1542 1543 1544 1545 1546 1546 1545 1545 1545 1544 1544 1543 1542 1541 1540 1540 1539 1538 1537 1535 1533 1531 1529 1527 1524 1522 1520 1516 1513
1519 1521 1523 1526 1527 1529 1531 1532 1534 1536 1537 1538 1539 1541 1542 1543 1544 1545 1545 1545 1545 1545 1545 1545 1544 1543 1542 1540 1539 1538 1537 1537 1535 1534 1530 1528 1527 1524 1521 1519 1517 1514 1511